Regional Weather Roundup
Issued by NWS

Home | Current Version | Previous Version | Graphics & Text | Print | Product List | Glossary On
Versions: 1 2 3 4 5 6 7 8 9 10 11 12 13 14 15 16 17 18 19 20 21 22 23 24 25 26 27 28 29 30 31 32 33 34 35 36 37 38 39 40 41 42 43 44 45 46 47 48 49 50
000
ASUS43 KLOT 210108
RWRIL

ILLINOIS REGIONAL WEATHER ROUNDUP
NATIONAL WEATHER SERVICE CHICAGO/ROMEOVILLE IL
800 PM CDT SUN AUG 20 2017

NOTE: "FAIR" INDICATES FEW OR NO CLOUDS BELOW 12,000 FEET WITH NO
SIGNIFICANT WEATHER AND/OR OBSTRUCTIONS TO VISIBILITY.

* THESE STATIONS ARE NOT UNDER NWS QUALITY CONTROL. THEY ALSO MAY NOT
  REPORT WEATHER SUCH AS PRECIPITATION OR FOG.

ILZ001-002-007-009-015-016-024-210200-
NORTHWEST ILLINOIS

CITY           SKY/WX    TMP DP  RH WIND       PRES   REMARKS
MOLINE         CLOUDY    78  70  76 E7        29.97S HX  80
STERLING*      CLOUDY    72  70  93 E5        30.00S
SAVANNA*       CLOUDY    74  70  85 CALM      30.00S
$$

ILZ003-004-008-010-011-017-018-210200-
NORTH CENTRAL ILLINOIS

CITY           SKY/WX    TMP DP  RH WIND       PRES   REMARKS
ROCKFORD       CLOUDY    76  67  73 S9        30.03S
FREEPORT*      CLOUDY    72  68  88 SE5       30.03S
ROCHELLE*      RAIN      73  71  95 NE6       30.03S
DE KALB*       CLOUDY    74  71  88 CALM      30.04S
PERU*          CLOUDY    75  69  81 E6        30.00F
$$

ILZ005-006-012>014-019>023-210200-
NORTHEAST ILLINOIS

CITY           SKY/WX    TMP DP  RH WIND       PRES   REMARKS
CHICAGO-OHARE  CLOUDY    81  70  69 S10       30.02R HX  84
CHICAGO-MIDWAY CLOUDY    83  70  64 S6        30.02R HX  87
AURORA         CLOUDY    78  72  81 SE3       30.03S HX  80
LANSING*       CLOUDY    80  68  67 SE3       30.03R HX  82
JOLIET*        CLOUDY    78  74  88 CALM      30.02S HX  81
WAUKEGAN       MOCLDY    73  70  90 CALM      30.01R
DUPAGE AIRPORT PTCLDY    76  72  87 SE3       30.02R
KANKAKEE*      CLOUDY    77  73  88 SE3       30.04S
WHEELING       LGT RAIN  80  72  76 CALM      30.03R HX  84
MORRIS*        CLOUDY    77  72  86 CALM      30.01S
ROMEOVILLE*    CLOUDY    75  70  84 CALM      30.03R
NORTHERLY ISL    N/A     81  67  62 S3          N/A  HX  83
$$

LMZ740>746-210200-
SOUTHERN LAKE MICHIGAN

STATION/POSITION SKY/WX   TEMP    WIND        PRES    VSBY  WAVE
                          AIR SEA DIR/SP/G                  HT/PER
                          (F)     (DEG/KT/KT) (MB)    (MI)  (FT/S)
SOUTHERN BUOY              74 72  110/  6/  8 1016.2R         1
WILMETTE HARBOR            76 74  150/  4/  6   N/A           1/ 2
HARRISON CRIB              83     190/ 12/ 12   N/A
CALUMET HARBOR             82     100/  3/  4 1015.8F
BURNS HARBOR               82     180/  6/ 10 1017.3R
MICHIGAN CITY              81     160/  5/  7   N/A
MICHIGAN CITY 6N           78 76  160/  6/  6   N/A           1
ST. JOSEPH                 79 77  200/  6/  8 1016.5          0
$$

ILZ025>027-034>036-040-047-049-050-058-095>099-210200-
WEST-CENTRAL ILLINOIS

CITY           SKY/WX    TMP DP  RH WIND       PRES   REMARKS
QUINCY         CLEAR     77  67  71 W3        30.00R
GALESBURG*     CLOUDY    78  71  79 SE5       29.99S HX  80
MACOMB*        CLOUDY    76  69  78 SW6       30.01R
JACKSONVILLE*  CLOUDY    79  72  79 CALM      29.98S HX  82
PITTSFIELD*    CLEAR     81  72  73 CALM      30.01R HX  86
$$

ILZ028>032-037-038-041>044-048-051>054-059>061-210200-
CENTRAL ILLINOIS

CITY           SKY/WX    TMP DP  RH WIND       PRES   REMARKS
PONTIAC        CLOUDY    78  76  96 E7        30.02S HX  80
BLOOMINGTON    MOCLDY    79  72  79 S6        30.02S HX  82
DECATUR        CLEAR     82  73  74 S6        30.01R HX  87
PEORIA         PTCLDY    83  74  74 CALM      29.99S HX  89
LACON*         MOCLDY    79  74  85 SE3       29.98S HX  82
LINCOLN*       CLEAR     83  77  82 CALM      29.99S HX  91
SPRINGFIELD    PTCLDY    81  77  88 CALM      29.99S HX  88
TAYLORVILLE    CLEAR     79  76  88 S3        30.00S HX  84
$$

ILZ033-039-045-046-055>057-062-063-210200-
EAST-CENTRAL ILLINOIS

CITY           SKY/WX    TMP DP  RH WIND       PRES   REMARKS
CHAMPAIGN      PTCLDY    78  70  76 SE5       30.02S HX  80
RANTOUL*       CLOUDY    81  74  78 SE3       30.02S HX  86
MATTOON        CLEAR     80  75  84 S5        30.01S HX  85
PARIS*         PTCLDY    78  73  85 SE5       30.03F HX  80
$$

ILZ079-100>102-210200-
SOUTHWEST ILLINOIS

CITY           SKY/WX    TMP DP  RH WIND       PRES   REMARKS
ALTON          PTCLDY    81  75  83 S7        29.99F HX  86
BELLEVILLE     CLOUDY    84  74  72 SW6       30.00S HX  91
CAHOKIA*       CLOUDY    86  72  62 S5        29.98F HX  92
SPARTA*        CLEAR     81  71  70 SW5       30.03R HX  85
$$

ILZ064>066-069>071-074>076-080>082-084>086-088>090-092>094-210200-
SOUTH-CENTRAL ILLINOIS

CITY           SKY/WX    TMP DP  RH WIND       PRES   REMARKS
CARBONDALE     CLEAR     79  74  84 SW7       30.04R HX  82
CAIRO*         CLEAR     75  71  87 CALM      30.05R
EFFINGHAM*     CLOUDY    78  76  95 N5        30.03S HX  80
MARION         CLEAR     81  81 100 SW3       30.04R HX  91
MT. VERNON       N/A     80  75  84 CALM      30.02S HX  85
CENTRALIA*     CLOUDY    81  77  89 S5        30.01R HX  88
SALEM*         CLOUDY    82  75  80 CALM      30.02R HX  88
METROPOLIS*    CLOUDY    79  74  84 CALM      30.04R HX  83
$$

ILZ067-068-072-073-078-083-087-091-210200-
SOUTHEAST ILLINOIS

CITY           SKY/WX    TMP DP  RH WIND       PRES   REMARKS
LAWRENCEVILLE  CLEAR     79  68  69 SE5       30.02S HX  81
FLORA*         CLEAR     78  75  89 CALM      30.02S HX  81
FAIRFIELD*     CLEAR     79  77  92 CALM      30.02R HX  84
HARRISBURG*    CLEAR     81  75  82 CALM      30.03R HX  87
ROBINSON*      CLEAR     75  71  85 CALM      30.03S
CARMI*         CLEAR     78  75  92 SE3       30.02R HX  80
$$

ABBREVIATIONS USED IN REMARKS
   TC - TEMPERATURE IN CELSIUS
  WCI - WIND CHILL INDEX
   HX - HEAT INDEX
  VSB - VISIBILITY
$$





USA.gov is the U.S. government's official web portal to all federal, state and local government web resources and services.